Location: Bucquoy
(50.1391°N, 2.7097°E)
Time: 23:44:01
(UTC+00:00)

Cosmos 407 Rocket - Pass Details

Date: 06 May 2021
Orbit: 743 x 787 km, 74.0° (Epoch: 21 June)

Event Time Altitude Azimuth Distance (km) Brightness Sun altitude
Rises 03:14:45 0° 336° (NNW) 3,271 7.0 -9.0°
Reaches altitude 10° 03:17:08 10° 336° (NNW) 2,344 6.2 -8.7°
Maximum altitude 03:22:29 87° 67° (ENE) 793 3.6 -8.1°
Drops below altitude 10° 03:27:50 10° 157° (SSE) 2,342 5.9 -7.4°
Sets 03:30:13 0° 157° (SSE) 3,268 6.6 -7.1°
